Find Starlink 2071

NORAD ID: 47361 Int'l Des: 2021-005 Owner: SPXS Country: US Constellation: starlink operational
LEOCIRCULARSTARLINK_TYPE

リアルタイム位置

3D地球を読み込み中...

Starlink 2071について

説明を読み込み中...

次回通過

Passes for default location (London). Set your location on the main map for personalized predictions.

高度履歴

Loading altitude history...

軌道要素

1 47361U 21005N 26123.23175582 -.00000858 00000-0 -17385-4 0 9997
2 47361 53.1551 143.2421 0001327 94.5299 265.5853 15.29359663291736
Epoch: May 3, 2026 • Age: 8 hours

現在のステータス

高度 478.7 km
速度 7.63 km/s
衛星直下点 29.66°N, 135.32°W
打ち上げ日 Jan 20, 2021
運用期間 5.2 years
タイプ internet

技術仕様

分類 Payload
質量 260.00 kg
乾燥質量 248.00 kg
総質量 260.00 kg
長さ 0.20 m
直径 2.80 m
スパン 9.00 m
形状 Box + pan
製造者 SPXS
バスタイプ Starlink
フェーズステータス In Orbit
所有者/国 SPXS/US

Most Searched